Bad Axe, MI

3:35 AM EDT on June 28, 2017 (GMT -0400)
Huron County Memorial

Weather History for KBAX - November, 2012

Change the Weather History Date:

Friday, November 23, 2012

  Actual Average (KP58) Record (KP58)
Temperature  
Mean Temperature 42 °F -  
Max Temperature 53 °F 41 °F 64 °F (2003)
Min Temperature 31 °F 32 °F 19 °F (2005)
Degree Days  
Heating Degree Days 23    
Moisture  
Dew Point 32 °F    
Average Humidity 74    
Maximum Humidity 85    
Minimum Humidity 64    
Precipitation  
Precipitation 0.00 in - - ()
Sea Level Pressure  
Sea Level Pressure 29.72 in    
Wind  
Wind Speed 18 mph (WSW)    
Max Wind Speed 28 mph    
Max Gust Speed 40 mph    
Visibility 10 miles    
Events Rain , Snow    
Averages and records for this station are not official NWS values.
T = Trace of Precipitation, MM = Missing Value Source: NWS Daily Summary

Daily Weather History Graph

Daily Weather History Graph

Search for Another Location

Airport or City:

Trip Planner

Search our weather history database for the weather conditions in past years. The results will help you decide how hot, cold, wet, or windy it might be!

Date:

Astronomy

Nov. 23, 2012 Rise Set
Actual Time 7:37 AM EST 4:59 PM EST
Civil Twilight 7:05 AM EST 5:31 PM EST
Nautical Twilight 6:30 AM EST 6:06 PM EST
Astronomical Twilight 5:55 AM EST 6:40 PM EST
Moon 2:20 PM EST (11/23) 2:47 AM EST (11/23)
Length of Visible Light 10h 25m
Length of Day
9h 22m
Waxing Gibbous, 79% of the Moon is Illuminated
Nov 23
Waxing Gibbous
Nov 28
Full
Dec 6
Last Quarter
Dec 13
New
Dec 20
First Quarter

Hourly Weather History & Observations

Time (EST) Temp. Windchill Dew Point Humidity Pressure Visibility Wind Dir Wind Speed Gust Speed Precip Events Conditions
12:15 AM 52.9 °F - 45.5 °F 76% 29.72 in 10.0 mi SSW 16.1 mph 21.9 mph N/A   Overcast
12:35 AM 52.7 °F - 45.3 °F 76% 29.72 in 10.0 mi SSW 17.3 mph 20.7 mph N/A   Overcast
12:54 AM 52.7 °F - 45.0 °F 75% 29.70 in 10.0 mi SSW 15.0 mph - N/A   Overcast
1:15 AM 52.7 °F - 45.1 °F 75% 29.69 in 10.0 mi SSW 15.0 mph - N/A Rain Rain
1:54 AM 53.2 °F - 44.8 °F 73% 29.67 in 10.0 mi SSW 16.1 mph 19.6 mph N/A   Overcast
2:15 AM 53.4 °F - 44.8 °F 73% 29.66 in 10.0 mi SSW 16.1 mph 20.7 mph N/A   Overcast
2:34 AM 53.6 °F - 44.8 °F 72% 29.65 in 10.0 mi SSW 13.8 mph 19.6 mph N/A   Overcast
2:54 AM 53.6 °F - 45.0 °F 73% 29.65 in 10.0 mi SSW 15.0 mph 21.9 mph N/A   Drizzle
3:15 AM 52.0 °F - 46.4 °F 81% 29.65 in 10.0 mi SSW 13.8 mph 23.0 mph N/A   Light Drizzle
3:34 AM 52.0 °F - 46.6 °F 82% 29.64 in 10.0 mi SSW 13.8 mph 23.0 mph N/A   Overcast
3:55 AM 51.8 °F - 46.8 °F 83% 29.63 in 10.0 mi SSW 15.0 mph 20.7 mph N/A   Overcast
4:15 AM 51.8 °F - 47.1 °F 84% 29.61 in 10.0 mi SSW 17.3 mph 24.2 mph N/A   Overcast
4:34 AM 51.8 °F - 47.3 °F 85% 29.60 in 10.0 mi SSW 15.0 mph 20.7 mph N/A   Overcast
4:55 AM 52.0 °F - 47.5 °F 85% 29.59 in 10.0 mi SSW 13.8 mph - N/A   Overcast
5:15 AM 51.8 °F - 47.5 °F 85% 29.59 in 10.0 mi SW 13.8 mph 20.7 mph N/A   Overcast
5:34 AM 52.0 °F - 47.5 °F 85% 29.59 in 10.0 mi SW 15.0 mph 23.0 mph N/A   Overcast
5:55 AM 52.0 °F - 44.8 °F 76% 29.60 in 10.0 mi WSW 19.6 mph 39.1 mph N/A   Overcast
6:15 AM 49.6 °F - 41.9 °F 75% 29.62 in 10.0 mi WSW 27.6 mph 38.0 mph N/A   Overcast
6:34 AM 47.1 °F - 40.1 °F 77% 29.64 in 10.0 mi West 25.3 mph 35.7 mph N/A   Overcast
6:55 AM 44.8 °F 36.2 °F 37.6 °F 76% 29.65 in 10.0 mi WSW 23.0 mph 34.5 mph N/A   Overcast
7:15 AM 44.1 °F 35.7 °F 36.3 °F 74% 29.65 in 10.0 mi WSW 20.7 mph 32.2 mph N/A   Overcast
7:34 AM 43.3 °F 35.8 °F 34.2 °F 70% 29.65 in 10.0 mi WSW 16.1 mph 27.6 mph N/A   Overcast
7:55 AM 42.8 °F 33.3 °F 34.0 °F 71% 29.66 in 10.0 mi WSW 24.2 mph 34.5 mph N/A   Overcast
8:15 AM 41.4 °F 32.1 °F 32.2 °F 70% 29.67 in 10.0 mi WSW 20.7 mph 34.5 mph N/A   Overcast
8:34 AM 41.0 °F 31.1 °F 31.6 °F 69% 29.67 in 10.0 mi WSW 23.0 mph 33.4 mph N/A   Overcast
8:55 AM 41.0 °F 32.2 °F 31.5 °F 69% 29.68 in 10.0 mi WSW 18.4 mph 29.9 mph N/A   Overcast
9:15 AM 39.7 °F 29.7 °F 31.3 °F 72% 29.68 in 10.0 mi WSW 21.9 mph 34.5 mph N/A   Overcast
9:34 AM 39.4 °F 30.1 °F 31.1 °F 72% 29.68 in 10.0 mi WSW 18.4 mph 31.1 mph N/A   Overcast
9:55 AM 39.2 °F 29.8 °F 30.2 °F 70% 29.68 in 10.0 mi West 18.4 mph 25.3 mph N/A   Overcast
10:15 AM 40.1 °F 29.9 °F 30.9 °F 70% 29.68 in 10.0 mi WSW 23.0 mph 26.5 mph N/A   Overcast
10:34 AM 40.1 °F 29.7 °F 29.1 °F 65% 29.68 in 10.0 mi West 24.2 mph 36.8 mph N/A   Overcast
10:55 AM 38.8 °F 28.3 °F 29.3 °F 69% 29.68 in 10.0 mi West 23.0 mph 29.9 mph N/A   Overcast
11:15 AM 38.5 °F 28.1 °F 28.9 °F 69% 29.68 in 10.0 mi West 21.9 mph 31.1 mph N/A   Overcast
11:35 AM 38.3 °F 27.3 °F 28.0 °F 67% 29.67 in 10.0 mi WSW 24.2 mph 32.2 mph N/A   Overcast
11:55 AM 37.9 °F 29.2 °F 28.4 °F 69% 29.68 in 10.0 mi West 15.0 mph 33.4 mph N/A   Overcast
12:14 PM 37.0 °F 27.4 °F 28.4 °F 71% 29.67 in 10.0 mi West 17.3 mph 26.5 mph N/A   Overcast
12:35 PM 37.2 °F 26.7 °F 28.6 °F 71% 29.68 in 10.0 mi West 20.7 mph 28.8 mph N/A   Overcast
12:55 PM 37.2 °F 27.0 °F 27.1 °F 67% 29.68 in 10.0 mi West 19.6 mph 27.6 mph N/A   Overcast
1:14 PM 36.1 °F 24.4 °F 25.2 °F 64% 29.68 in 10.0 mi West 24.2 mph 39.1 mph N/A   Overcast
1:35 PM 34.7 °F 23.1 °F 25.2 °F 68% 29.69 in 10.0 mi West 21.9 mph 35.7 mph N/A   Overcast
1:55 PM 34.2 °F 21.8 °F 24.8 °F 69% 29.70 in 10.0 mi West 24.2 mph 36.8 mph N/A   Overcast
2:14 PM 34.2 °F 23.0 °F 25.0 °F 69% 29.70 in 10.0 mi West 19.6 mph 28.8 mph N/A   Overcast
2:35 PM 34.0 °F 22.7 °F 24.3 °F 68% 29.70 in 10.0 mi WSW 19.6 mph 29.9 mph N/A   Overcast
2:55 PM 33.8 °F 21.9 °F 25.0 °F 70% 29.70 in 5.0 mi West 21.9 mph 29.9 mph N/A Snow Light Snow
3:15 PM 32.9 °F 20.1 °F 27.3 °F 80% 29.71 in 5.0 mi West 24.2 mph 33.4 mph N/A Snow Light Snow
3:35 PM 32.9 °F 21.3 °F 27.1 °F 79% 29.71 in 10.0 mi WSW 19.6 mph 27.6 mph N/A   Overcast
3:55 PM 33.1 °F 20.3 °F 26.6 °F 77% 29.71 in 10.0 mi WSW 24.2 mph 28.8 mph N/A   Overcast
4:15 PM 33.3 °F 21.2 °F 26.6 °F 77% 29.72 in 10.0 mi WSW 21.9 mph 28.8 mph N/A   Overcast
4:35 PM 32.9 °F 21.6 °F 27.0 °F 79% 29.73 in 10.0 mi West 18.4 mph 25.3 mph N/A   Overcast
4:55 PM 33.8 °F 23.2 °F 26.2 °F 74% 29.74 in 10.0 mi West 17.3 mph 29.9 mph N/A   Overcast
5:15 PM 34.2 °F 23.0 °F 24.1 °F 67% 29.75 in 10.0 mi West 19.6 mph 27.6 mph N/A   Overcast
5:35 PM 33.8 °F 22.5 °F 22.6 °F 64% 29.76 in 10.0 mi West 19.6 mph 33.4 mph N/A   Overcast
5:55 PM 33.3 °F 20.1 °F 22.5 °F 65% 29.76 in 10.0 mi West 26.5 mph 34.5 mph N/A   Overcast
6:15 PM 33.3 °F 21.2 °F 23.4 °F 67% 29.77 in 10.0 mi West 21.9 mph 34.5 mph N/A   Overcast
6:35 PM 33.1 °F 20.3 °F 23.9 °F 69% 29.78 in 10.0 mi West 24.2 mph 40.3 mph N/A   Overcast
6:55 PM 32.9 °F 20.7 °F 25.0 °F 73% 29.79 in 10.0 mi WNW 21.9 mph 29.9 mph N/A   Overcast
7:15 PM 32.5 °F 22.3 °F 25.7 °F 76% 29.80 in 10.0 mi WNW 15.0 mph 29.9 mph N/A   Overcast
7:35 PM 32.9 °F 20.4 °F 25.2 °F 73% 29.81 in 10.0 mi WNW 23.0 mph 36.8 mph N/A   Overcast
7:55 PM 32.0 °F 19.8 °F 26.2 °F 79% 29.82 in 10.0 mi West 20.7 mph 28.8 mph N/A   Overcast
8:15 PM 32.0 °F 19.5 °F 25.7 °F 78% 29.82 in 10.0 mi West 21.9 mph 32.2 mph N/A   Overcast
8:35 PM 32.0 °F 20.5 °F 26.2 °F 79% 29.83 in 10.0 mi West 18.4 mph 31.1 mph N/A   Overcast
8:55 PM 32.0 °F 20.1 °F 26.2 °F 79% 29.84 in 10.0 mi WNW 19.6 mph 34.5 mph N/A   Overcast
9:15 PM 32.0 °F 18.4 °F 26.1 °F 79% 29.84 in 10.0 mi WNW 26.5 mph 35.7 mph N/A   Overcast
9:35 PM 32.0 °F 21.2 °F 26.1 °F 79% 29.84 in 10.0 mi WNW 16.1 mph 31.1 mph N/A Snow Light Snow
9:55 PM 32.2 °F 19.7 °F 25.7 °F 77% 29.85 in 10.0 mi WNW 21.9 mph 28.8 mph N/A Snow Light Snow
10:15 PM 32.0 °F 22.1 °F 25.5 °F 77% 29.87 in 5.0 mi WNW 13.8 mph 25.3 mph N/A Snow Light Snow
10:35 PM 32.0 °F 21.6 °F 25.3 °F 76% 29.87 in 10.0 mi WNW 15.0 mph 26.5 mph N/A Snow Light Snow
10:55 PM 32.0 °F 21.6 °F 23.9 °F 72% 29.88 in 10.0 mi WNW 15.0 mph 27.6 mph N/A   Overcast
11:14 PM 32.0 °F 20.8 °F 24.4 °F 74% 29.88 in 10.0 mi WNW 17.3 mph 21.9 mph N/A   Overcast
11:35 PM 31.6 °F 21.2 °F 24.4 °F 75% 29.89 in 10.0 mi West 15.0 mph 24.2 mph N/A   Mostly Cloudy
11:55 PM 31.8 °F 22.3 °F 24.4 °F 74% 29.90 in 10.0 mi WNW 12.7 mph 25.3 mph N/A   Overcast